Погода в Мокве 1-й

Россия / Курская область     51°43′13″N   36°05′29″E
темп.,
°C
ветер,
м/с
пор.,
м/с
влажн.,
%
обл.,
%
осадки,
мм/ч
давл.,
гПа
погр.,
м
28 сентября, вт
вт2800:00+8с4989100 0.1 1022445
03:00+7с3794100 0.1 1023284
06:00+8с489298 0.0 1023373
09:00+9ссв4890100 0.2 1024518
12:00+9св4781100 0.3 1025706
15:00+10св566987 0.4 1026919
18:00+8св477584 0.1 1028694
21:00+7св4880100 0.1 1030809
29 сентября, ср
ср2900:00+7всв4777100 0.0 1031536
03:00+6св4777100 0.0 1032491
06:00+6св3778100 0.0 1033451
09:00+7всв57655 0.0 1034646
12:00+10всв45485 0.0 10331191
15:00+12св45415 0.0 10321337
18:00+9св36530 0.0 1033382
21:00+7св356334 0.0 1034148
30 сентября, чт
чт3000:00+6всв236878 0.0 103485
03:00+5св1271100 0.0 103434
06:00+4ссв22755 0.0 103554
09:00+7св24624 0.0 1035287
12:00+11всв33494 0.0 1034983
15:00+13св23479 0.0 10341317
18:00+10св24616 0.0 1033123
21:00+8всв35710 0.0 1034160
1 октября, пт
пт100:00+7всв24740 0.0 103598
03:00+6всв22783 0.0 103548
06:00+5всв22815 0.0 103645
09:00+8в23661 0.0 1036250
12:00+12вюв23490 0.0 1036910
15:00+14в23434 0.0 10351232
18:00+12в22545 0.0 103444
21:00+10вюв23635 0.0 103561
2 октября, сб
сб200:00+8юв22695 0.0 103556
03:00+7юв22715 0.0 103530
06:00+6юв117322 0.0 103518
09:00+9вюв226289 0.0 1035194
12:00+13вюв235231 0.0 1034769
15:00+14вюв345098 0.0 10331219
18:00+12вюв3562100 0.0 1032298
21:00+11вюв2566100 0.0 1033225